Skip Page Navigation
NASA JPL Caltech
NASA Logo - Jet Propulsion Laboratory + View the NASA Portal
+ Center for Near-Earth Object Studies
JPL Home Earth Solar System Stars & Galaxies Technology
JPL Solar System Dynamics
BODIES ORBITS EPHEMERIDES TOOLS PHYSICAL DATA DISCOVERY FAQ SITE MAP
JPL Small-Body Database Browser
Search: [ help ]  
302169 (2001 TD45)
Classification: Aten [NEO, PHA]          SPK-ID: 2302169
Ephemeris | Orbit Diagram | Orbital Elements | Mission Design | Physical Parameters | Discovery Circumstances | Close-Approach Data ]

[ show orbit diagram ]
Orbital Elements at Epoch 2459200.5 (2020-Dec-17.0) TDB
Reference: JPL 32 (heliocentric ecliptic J2000)
 Element Value Uncertainty (1-sigma)   Units 
e .7774495137482449 2.701e-07  
a .7967545777221524 3.5975e-09 au
q .1773181186953768 2.1465e-07 au
i 25.38902338690567 3.5955e-05 deg
node 30.26352186592161 2.6088e-05 deg
peri 212.4551820028056 2.1045e-05 deg
M 59.54234589516675 4.3844e-05 deg
tp 2459157.535603239510
(2020-Nov-04.03560324)
3.1394e-05 TDB
period 259.7677770541422
0.71
1.7593e-06
4.817e-09
d
yr
n 1.385853180415702 9.386e-09 deg/d
Q 1.416191036748928 6.3943e-09 au
  Orbit Determination Parameters
   # obs. used (total)      106  
   data-arc span      6583 days (18.02 yr)  
   first obs. used      2001-10-14  
   last obs. used      2019-10-23  
   planetary ephem.      DE441  
   SB-pert. ephem.      SB441-N16  
   condition code      0  
   norm. resid. RMS      .57204  
   source      ORB  
   producer      Otto Matic  
   solution date      2021-Apr-14 05:42:00  

Additional Information
 Earth MOID = .0273523 au 
 Jupiter MOID = 3.65508 au 
 T_jup = 6.975 
[ show covariance matrix ]

Ephemeris | Orbit Diagram | Orbital Elements | Mission Design | Physical Parameters | Discovery Circumstances | Close-Approach Data ]

Physical Parameter Table
Parameter Symbol Value Units Sigma Reference Notes
absolute magnitude H 19.9   n/a MPO276928  

302169 (2001 TD45)          Discovered 2001-Oct-15 by LINEAR at Socorro
Reference: 20111110/Numbers.arcLast Updated: 2011-11-14

[ hide close-approach data ]
Close-Approach Data   ...sorted by Date/Time (TDB)
Date/Time (TDB) Time Uncertainty
(days_HH:MM)
Body Nominal Distance (au) Minimum Distance (au) Maximum Distance (au) V-relative (km/s) V-infinity (km/s) JD (TDB) Time Uncertainty (minutes) Semi-major axis (km) Semi-minor axis (km) range-LOV angle (deg) N-sigma BP Orbit Ref. Reference Modified
1900-Oct-26 16:09 < 00:01 Earth 0.289880207640272 0.289879325796362 0.289881089484247 20.2309632868352 20.2305089456488 2415319.173256184 0.0633599023673237 44.6769255715912 13.5006581129816 -10.6720645659217 1341717.35561458 T 32 CATAB v2.0f-lin.ifort 2021-Apr-14 05:42:01 2021-Apr-14 05:42
1901-Dec-12 03:11 < 00:01 Earth 0.454576395505453 0.454574272526124 0.454578518500079 32.8654759001672 32.8652975527891 2415730.632892588 0.160151691188329 189.633822199089 58.1394459769528 -60.6504507831095 1017839.59390564 T 32 CATAB v2.0f-lin.ifort 2021-Apr-14 05:42:01 2021-Apr-14 05:42
1902-Nov-09 23:44 < 00:01 Earth 0.380906463926339 0.380905386504534 0.380907541348209 38.7303182737227 38.7301376628209 2416063.488942556 0.157490079302601 54.2532979907075 16.1096637231949 -8.37245984388898 1099277.87039423 T 32 CATAB v2.0f-lin.ifort 2021-Apr-14 05:42:01 2021-Apr-14 05:42
1903-Jul-03 05:26 < 00:01 Mercury 0.0798984464364604 0.0798974173830963 0.0798994756111287 54.108437124707 54.1084030585823 2416298.726056623 0.180218888283477 181.99364873882 23.4908399750207 75.3559535713403 492516.973987056 T 32 CATAB v2.0f-lin.ifort 2021-Apr-14 05:42:01 2021-Apr-14 05:42
1903-Dec-05 19:04 < 00:01 Earth 0.494507376541905 0.494505902181688 0.494508850903921 19.4505508784637 19.4502738586906 2416454.294305449 0.319576157246004 100.404456611114 53.1062137684383 53.3693213755816 1081460.20046354 T 32 CATAB v2.0f-lin.ifort 2021-Apr-14 05:42:01 2021-Apr-14 05:42
1904-Dec-24 06:50 < 00:01 Venus 0.0852716292066241 0.0852697034997779 0.0852735549196892 29.2099230826768 29.2090512353246 2416838.785058370 0.145887987584218 102.857244332331 16.565211452177 -21.2864837946307 308774.962500781 T 32 CATAB v2.0f-lin.ifort 2021-Apr-14 05:42:01 2021-Apr-14 05:42
1905-Oct-31 06:08 < 00:01 Earth 0.366511558676594 0.366510690295756 0.366512427057578 19.7701874080038 19.7698196874259 2417149.755857045 0.12656997722986 45.1850295778816 20.3369801265715 -18.6486114860585 1729545.28887354 T 32 CATAB v2.0f-lin.ifort 2021-Apr-14 05:42:01 2021-Apr-14 05:42
1907-Nov-05 06:18 < 00:01 Earth 0.269398859973797 0.26939735350125 0.269400366446528 34.7553343279618 34.7550497528529 2417884.762173936 0.173819309916704 75.9807534727823 13.1969260727507 -8.76094987956463 669474.548970811 T 32 CATAB v2.0f-lin.ifort 2021-Apr-14 05:42:01 2021-Apr-14 05:42
1908-Dec-11 12:00 < 00:01 Earth 0.465532038251499 0.465530051300599 0.465534025207507 19.4103332961411 19.4100384244449 2418286.999926175 0.381612708842609 136.773203608499 57.2825781278764 49.3895614986667 930223.294248636 T 32 CATAB v2.0f-lin.ifort 2021-Apr-14 05:42:01 2021-Apr-14 05:42
1910-Jul-25 02:18 < 00:01 Mercury 0.0984731381984321 0.0984713277186132 0.098474949166531 56.4372756246149 56.4372491248389 2418877.595989724 0.267680283861394 363.322066777825 16.8001132986386 -75.8510523224243 850463.367343932 T 32 CATAB v2.0f-lin.ifort 2021-Apr-14 05:42:01 2021-Apr-14 05:42
1910-Nov-05 18:45 < 00:01 Earth 0.427679618534803 0.427678914568942 0.427680322500908 19.687837306601 19.6875208608409 2418981.281328105 0.188980771318619 41.451999024028 24.2774095224137 -41.0016875679536 2562703.04962794 T 32 CATAB v2.0f-lin.ifort 2021-Apr-14 05:42:01 2021-Apr-14 05:42
1912-Oct-30 22:32 < 00:01 Earth 0.155517271063333 0.155515344422083 0.155519197705521 30.8927928095406 30.8922382087855 2419706.438962196 0.181605752670478 97.9580178620963 10.6935350976308 -11.3270821642735 469543.573045138 T 32 CATAB v2.0f-lin.ifort 2021-Apr-14 05:42:01 2021-Apr-14 05:42
1913-Dec-17 18:56 < 00:01 Earth 0.428242601190003 0.428240227937681 0.428244974454595 19.8670850373236 19.8667718589526 2420119.289236090 0.373497323884456 177.376679476739 59.2706715792365 52.2144652347764 891297.537222215 T 32 CATAB v2.0f-lin.ifort 2021-Apr-14 05:42:01 2021-Apr-14 05:42
1914-Mar-20 22:57 < 00:01 Venus 0.0431759565403918 0.0431735039191995 0.0431784092133839 34.4125950502228 34.4111334830621 2420212.455943656 0.207299987788159 143.626407900135 16.9376425289653 31.8693961479831 204023.892480359 T 32 CATAB v2.0f-lin.ifort 2021-Apr-14 05:42:01 2021-Apr-14 05:42
1915-Nov-11 10:19 < 00:01 Earth 0.470995794812267 0.470995363348873 0.470996226276063 19.7219939242152 19.7217070789637 2420812.929853266 0.239078655231672 43.5879458397734 17.547091320229 -71.8158661583727 4988570.67234482 T 32 CATAB v2.0f-lin.ifort 2021-Apr-14 05:42:01 2021-Apr-14 05:42
1917-Oct-27 13:16 < 00:01 Earth 0.051201289749199 0.0511993605091761 0.0512032190131312 27.5099161152275 27.5080243940653 2421529.053006564 0.167723995768044 111.012931142597 8.55715033690194 -30.0337312033181 442590.768965093 T 32 CATAB v2.0f-lin.ifort 2021-Apr-14 05:42:01 2021-Apr-14 05:42
1918-Jun-09 07:21 < 00:01 Mercury 0.0961062980204161 0.0961029573966765 0.0961096388108649 59.6130133549216 59.6129876490053 2421753.806077646 0.232735367360692 261.147882362613 20.4140148137023 50.577022401802 545000.304598779 T 32 CATAB v2.0f-lin.ifort 2021-Apr-14 05:42:01 2021-Apr-14 05:42
1918-Dec-21 10:43 < 00:01 Earth 0.395741353398267 0.39573918489539 0.395743521921389 21.3832950193285 21.382980150628 2421948.946750337 0.202661456398875 200.470401891307 59.2829140365566 61.8194851046268 932457.046210079 T 32 CATAB v2.0f-lin.ifort 2021-Apr-14 05:42:01 2021-Apr-14 05:42
1919-Feb-25 12:42 < 00:01 Mercury 0.0944529493181245 0.0944501368841427 0.0944557619616487 45.2029582385503 45.2029237445387 2422015.029456873 0.246021116762835 264.653516267094 21.2555479425309 -58.2971052465052 567749.966850457 T 32 CATAB v2.0f-lin.ifort 2021-Apr-14 05:42:01 2021-Apr-14 05:42
1920-Nov-15 19:00 < 00:01 Earth 0.497752230545263 0.497752049777002 0.497752411313581 19.7484611871583 19.7481901250189 2422644.291871526 0.269015129509545 49.6393416659649 8.87590518446575 -88.1554822986922 5887148.12310549 T 32 CATAB v2.0f-lin.ifort 2021-Apr-14 05:42:01 2021-Apr-14 05:42
1922-Oct-25 09:26 < 00:01 Earth 0.0595057072631005 0.0595036380978022 0.0595077764383908 24.6779881071692 24.6761735947233 2423352.892926448 0.126556247331374 110.142905388509 6.83335686437119 20.5190313700143 464825.825370678 T 32 CATAB v2.0f-lin.ifort 2021-Apr-14 05:42:01 2021-Apr-14 05:42
1923-Dec-21 13:55 < 00:01 Earth 0.379680417414928 0.379678967396465 0.379681867448391 23.9891799700565 23.9888874326519 2423775.080172989 0.0567376925202334 209.560498812738 57.5724427547326 77.4603002188823 996232.704118319 T 32 CATAB v2.0f-lin.ifort 2021-Apr-14 05:42:01 2021-Apr-14 05:42
1927-Sep-29 08:17 < 00:01 Venus 0.078952123975771 0.0789494462132894 0.0789548017539917 29.4788671637073 29.4779341216706 2425152.845048958 0.170897747758413 144.771125073812 14.7929868109065 -22.852918441472 325624.566348859 T 32 CATAB v2.0f-lin.ifort 2021-Apr-14 05:42:01 2021-Apr-14 05:42
1927-Oct-24 18:34 < 00:01 Earth 0.156314971451108 0.156312988151426 0.156316954750906 22.2740990600713 22.2733337823064 2425178.273788282 0.0675301000733563 99.1270423861196 7.06440183870699 3.88059367094159 341921.855765172 T 32 CATAB v2.0f-lin.ifort 2021-Apr-14 05:42:01 2021-Apr-14 05:42
1928-Dec-18 05:22 < 00:01 Earth 0.389676892708414 0.389675720648926 0.389678064771912 27.3426201210643 27.3423700464771 2425598.723429713 0.124949881300937 209.870398373368 55.5818241232616 -84.8771364958392 1054646.18924173 T 32 CATAB v2.0f-lin.ifort 2021-Apr-14 05:42:01 2021-Apr-14 05:42
